This demonstration page uses our WeatherBlox Daily Observations layout. Learn more.

Left ArrowRight Arrow

Hourly Observations for June 25, 2022

Temp ( °F °C ) Dew Point ( °F °C ) Humidity (%) Winds ( mph kmh ) Pressure ( in mb ) Visibility ( mi km ) Precip ( " mm )
12:34 am 00:34 Cloudy with Strong Thunderstorms 68 20 66 19 94 94 NW 12 19 29.84 1010 3 5 0.73 18.54
12:56 am 00:56 Cloudy with Nearby Thunderstorms 72 22.2 69 20.6 91 91 WNW 13 20 29.80 1009 10 16 0.77 19.56
1:13 am 01:13 Cloudy with Light Rain 72 22 70 21 94 94 N 10 17 29.74 1007 10 16 0.02 0.51
1:56 am 01:56 Clear 74 23.3 71 21.7 91 91 NE 8 13 29.69 1006 10 16 0.03 0.76
2:56 am 02:56 Clear 72 22.2 69 20.6 91 91 NNW 9 15 29.73 1007 10 16 0.00 0.00
3:56 am 03:56 Clear 71 21.7 69 20.6 94 94 SSW 9 15 29.77 1008 9 14 0.00 0.00
4:56 am 04:56 Clear 72 22.2 69 20.6 91 91 WSW 10 17 29.81 1010 10 16 0.00 0.00
5:56 am 05:56 Partly Cloudy 72 22.2 68 20 87 87 WNW 7 11 29.84 1011 10 16 0.00 0.00
6:51 am 06:51 Mostly Cloudy 72 22 68 20 88 88 NNW 25 41 29.86 1011 10 16 0.00 0.00
6:56 am 06:56 Mostly Cloudy 72 22.2 66 18.9 82 82 NNW 24 39 29.89 1012 10 16 0.00 0.00
7:04 am 07:04 Cloudy 70 21 64 18 83 83 NNW 26 43 29.88 1012 10 16 0.00 0.00
7:56 am 07:56 Cloudy 66 18.9 62 16.7 87 87 NNW 28 44 29.95 1014 10 16 0.00 0.00
8:26 am 08:26 Cloudy 66 19 59 15 78 78 NNW 24 39 29.96 1015 10 16 0.00 0.00
8:52 am 08:52 Partly Cloudy 66 19 57 14 73 73 NNW 26 43 29.98 1015 10 16 0.00 0.00
8:56 am 08:56 Partly Cloudy 65 18.3 57 13.9 76 76 NNW 24 39 30.00 1016 10 16 0.00 0.00
9:56 am 09:56 Mostly Cloudy 66 18.9 57 13.9 73 73 N 21 33 30.04 1017 10 16 0.00 0.00
10:56 am 10:56 Partly Cloudy 71 21.7 59 15 66 66 N 24 39 30.04 1017 10 16 0.00 0.00
11:56 am 11:56 Cloudy 73 22.8 57 13.9 57 57 N 25 41 30.06 1018 10 16 0.00 0.00
12:56 pm 12:56 Partly Cloudy 76 24.4 57 13.9 52 52 N 21 33 30.08 1019 10 16 0.00 0.00
1:56 pm 13:56 Sunny 78 25.6 54 12.2 43 43 N 26 43 30.08 1019 10 16 0.00 0.00
2:56 pm 14:56 Sunny 79 26.1 55 12.8 44 44 N 21 33 30.08 1019 10 16 0.00 0.00
3:56 pm 15:56 Sunny 79 26.1 54 12.2 42 42 N 24 39 30.10 1019 10 16 0.00 0.00
4:56 pm 16:56 Sunny 76 24.4 51 10.6 42 42 N 17 28 30.12 1020 10 16 0.00 0.00
5:56 pm 17:56 Sunny 75 23.9 52 11.1 45 45 N 13 20 30.14 1021 10 16 0.00 0.00
6:56 pm 18:56 Sunny 74 23.3 54 12.2 50 50 N 12 19 30.13 1020 10 16 0.00 0.00
7:56 pm 19:56 Sunny 73 22.8 52 11.1 48 48 N 14 22 30.15 1021 10 16 0.00 0.00
8:56 pm 20:56 Sunny 67 19.4 52 11.1 59 59 N 9 15 30.19 1022 10 16 0.00 0.00
9:56 pm 21:56 Clear 65 18.3 51 10.6 61 61 N 8 13 30.23 1024 10 16 0.00 0.00
10:56 pm 22:56 Clear 63 17.2 51 10.6 65 65 N 7 11 30.26 1025 10 16 0.00 0.00
11:56 pm 23:56 Clear 62 16.7 48 8.9 60 60 N 10 17 30.28 1025 10 16 0.00 0.00

Powered by AerisWeather